sat.trackr.live / text

‹ back to catalog

STARLINK-36614

NORAD 67622 · 2026-020F

PAYLOAD ACTIVE UNKNOWN

§ Identity

Operator
Country
US
Launch date
2026-01-30
Launch site
AFETR
Launch vehicle
Mass (kg)
RCS (m²)

Purposes: comms

External: N2YO · Heavens-Above · Gunter

§ Orbital elements

Epoch: 2026-09-19T21:27:00.807840Z

Period
94.27 min
Inclination
42.9993°
Eccentricity
0.0000715
Mean motion
15.27590038 rev/d
Perigee alt
482.5 km
Apogee alt
483.5 km
Semi-major
6,861.2 km
B*
4.3008e-4
RAAN
123.1005°
Arg perigee
259.1267°
Mean anomaly
100.9504°
Rev number
3,581

§ Raw data

STARLINK-366141 67622U 26020F   26262.89375935  .00011595  00000+0  43008-3 0  99982 67622  42.9993 123.1005 0000715 259.1267 100.9504 15.27590038 35814

JSON: /api/v1/satellites/67622 · /tle

For live sub-satellite position, see the globe view (requires WebGL).

§ Visibility from observer

Set your observer location to see the next 7 days of passes ≥ 10°. The values pass through the URL so the page stays shareable.

No JS? Fill the form by hand. The geolocation button needs JavaScript.